This is the latest recevied weather packets stored in our database for station/object KB4MLW-13. If no packets are shown the sender has not sent any weather packets the latest 10 day(s).
| Time | Temp. | Humidity | Pressure | Rain* | Wind** | Luminosity | Snow |
|---|---|---|---|---|---|---|---|
| 1788376978 | 34.44° C | 58% | 1000.7 hPa | 0 mm | - | - | - |
| 1788376918 | 34.44° C | 57% | 1000.7 hPa | 0 mm | - | - | - |
| 1788376828 | 34.44° C | 56% | 1000.7 hPa | 0 mm | - | - | - |
| 1788376739 | 34.44° C | 57% | 1000.6 hPa | 0 mm | - | - | - |
| 1788376678 | 34.44° C | 55% | 1000.6 hPa | 0 mm | - | - | - |
| 1788376618 | 34.44° C | 57% | 1000.8 hPa | 0 mm | - | - | - |
| 1788376558 | 34.44° C | 58% | 1000.7 hPa | 0 mm | - | - | - |
| 1788376469 | 35° C | 55% | 1000.8 hPa | 0 mm | - | - | - |
| 1788376408 | 35° C | 56% | 1000.8 hPa | 0 mm | - | - | - |
| 1788376348 | 35° C | 55% | 1000.7 hPa | 0 mm | - | - | - |
| 1788376288 | 35.56° C | 53% | 1000.7 hPa | 0 mm | - | - | - |
| 1788376199 | 35.56° C | 54% | 1000.7 hPa | 0 mm | - | - | - |
| 1788376138 | 35.56° C | 56% | 1000.8 hPa | 0 mm | - | - | - |
| 1788376018 | 35.56° C | 58% | 1000.5 hPa | 0 mm | - | - | - |
| 1788375958 | 35.56° C | 53% | 1000.8 hPa | 0 mm | - | - | - |
| 1788375898 | 35.56° C | 53% | 1000.9 hPa | 0 mm | - | - | - |
| 1788375809 | 35.56° C | 53% | 1000.8 hPa | 0 mm | - | - | - |
| 1788375757 | 35° C | 56% | 1001 hPa | 0 mm | - | - | - |
| 1788375659 | 35° C | 54% | 1000.8 hPa | 0 mm | - | - | - |
| 1788375568 | 35° C | 54% | 1000.8 hPa | 0 mm | - | - | - |
| 1788375508 | 35° C | 54% | 1000.9 hPa | 0 mm | - | - | - |
| 1788375418 | 34.44° C | 53% | 1001.1 hPa | 0 mm | - | - | - |
| 1788375358 | 34.44° C | 53% | 1001 hPa | 0 mm | - | - | - |
| 1788375298 | 34.44° C | 54% | 1001.1 hPa | 0 mm | - | - | - |
| 1788375209 | 35° C | 58% | 1001 hPa | 0 mm | - | - | - |
* Rain latest hour (hover to see other rain measurements)
** Current wind speed in m/s (hover to see current wind gust speed)